Weather History for West Point, VA

Change the Weather History Date:

Thursday, January 17, 2013

  Actual Average (KRIC) Record (KRIC)
Temperature  
Mean Temperature 40 °F 38 °F  
Max Temperature 46 °F 47 °F 80 °F (1943)
Min Temperature 33 °F 28 °F -1 °F (1977)
Degree Days  
Heating Degree Days 26 27  
Month to date heating degree days 459  
Since 1 July heating degree days 1878  
Cooling Degree Days 0 0  
Month to date cooling degree days 0  
Year to date cooling degree days 0  
Moisture  
Dew Point 43 °F    
Average Humidity 100    
Maximum Humidity 100    
Minimum Humidity 93    
Precipitation  
Precipitation 1.15 in 0.09 in 1.56 in (2013)
Month to date precipitation 1.66  
Year to date precipitation 1.66  
Snow  
Snow 0.00 in 0.20 in 2.60 in (1985)
Month to date snowfall 1.9  
Since 1 July snowfall 4.2  
Snow Depth -    
Sea Level Pressure  
Sea Level Pressure 30.08 in    
Wind  
Wind Speed 2 mph (NNE)    
Max Wind Speed 9 mph    
Max Gust Speed -    
Visibility 4 miles    
Events      
T = Trace of Precipitation, MM = Missing Value Source: NWS Daily Summary

Daily Weather History Graph

Daily Weather History Graph

Search for Another Location

Airport:

Trip Planner

Search our weather history database for the weather conditions in past years. The results will help you decide how hot, cold, wet, or windy it might be!

Date:

Astronomy

Jan. 17, 2013 Rise Set
Actual Time 7:19 AM EST 5:15 PM EST
Civil Twilight 6:51 AM EST 5:43 PM EST
Nautical Twilight 6:19 AM EST 6:15 PM EST
Astronomical Twilight 5:48 AM EST 6:46 PM EST
Moon 10:34 AM EST (1/17) 11:54 PM EST (1/17)
Length of Visible Light 10h 52m
Length of Day
9h 55m
Waxing Crescent, 37% of the Moon is Illuminated
Jan 17
Waxing Crescent
Jan 18
First Quarter
Jan 26
Full
Feb 3
Last Quarter
Feb 10
New

Hourly Weather History & Observations

Time (EST) Temp. Windchill Dew Point Humidity Pressure Visibility Wind Dir Wind Speed Gust Speed Precip Events Conditions
12:15 AM 45.1 °F - 45.1 °F 100% 29.99 in 3.0 mi Calm Calm - N/A   Overcast
12:35 AM 45.1 °F - 45.1 °F 100% 30.01 in 4.0 mi Calm Calm - 0.01 in   Overcast
12:55 AM 45.1 °F - 45.1 °F 100% 30.02 in 3.0 mi Calm Calm - 0.01 in   Overcast
1:15 AM 45.5 °F - 45.5 °F 100% 30.03 in 3.0 mi Calm Calm - N/A   Overcast
1:35 AM 45.5 °F - 45.5 °F 100% 30.03 in 4.0 mi Calm Calm - N/A   Overcast
1:55 AM 45.7 °F - 45.7 °F 100% 30.05 in 5.0 mi Calm Calm - 0.01 in   Overcast
2:15 AM 45.7 °F - 45.7 °F 100% 30.03 in 4.0 mi Calm Calm - 0.01 in   Overcast
2:35 AM 45.7 °F - 45.7 °F 100% 30.04 in 5.0 mi Calm Calm - 0.01 in   Overcast
2:55 AM 45.7 °F - 45.7 °F 100% 30.03 in 4.0 mi Calm Calm - 0.02 in   Overcast
3:15 AM 45.7 °F - 45.7 °F 100% 30.03 in 3.0 mi Calm Calm - 0.02 in   Overcast
3:35 AM 45.7 °F 43.4 °F 45.7 °F 100% 30.01 in 3.0 mi ESE 4.6 mph - 0.03 in   Overcast
3:55 AM 45.9 °F 44.6 °F 45.9 °F 100% 30.02 in 4.0 mi SSE 3.5 mph - 0.04 in   Overcast
4:35 AM 46.0 °F 44.8 °F 46.0 °F 100% 30.03 in 5.0 mi South 3.5 mph - 0.03 in   Overcast
4:55 AM 46.0 °F - 46.0 °F 100% 30.03 in 5.0 mi Calm Calm - 0.03 in   Overcast
5:15 AM 46.4 °F - 46.4 °F 100% 30.04 in 4.0 mi Calm Calm - 0.01 in   Overcast
5:35 AM 46.4 °F 45.2 °F 46.4 °F 100% 30.05 in 4.0 mi North 3.5 mph - 0.03 in   Overcast
5:55 AM 46.0 °F 43.9 °F 46.0 °F 100% 30.05 in 4.0 mi NNE 4.6 mph - 0.03 in   Overcast
6:15 AM 45.9 °F - 45.9 °F 100% 30.06 in 4.0 mi Calm Calm - 0.01 in   Overcast
6:35 AM 45.9 °F 44.6 °F 45.9 °F 100% 30.05 in 3.0 mi NE 3.5 mph - 0.04 in   Overcast
6:55 AM 45.7 °F - 45.7 °F 100% 30.06 in 5.0 mi Calm Calm - 0.06 in   Overcast
7:15 AM 45.7 °F - 45.7 °F 100% 30.07 in 4.0 mi Calm Calm - 0.03 in   Overcast
7:35 AM 45.5 °F - 45.5 °F 100% 30.08 in 5.0 mi Calm Calm - 0.05 in   Overcast
7:55 AM 45.5 °F - 45.5 °F 100% 30.09 in 7.0 mi Calm Calm - 0.06 in   Overcast
8:15 AM 45.7 °F - 45.7 °F 100% 30.10 in 5.0 mi Calm Calm - 0.02 in   Overcast
8:35 AM 45.9 °F - 45.9 °F 100% 30.10 in 4.0 mi Calm Calm - 0.07 in   Overcast
8:55 AM 45.9 °F 42.3 °F 45.9 °F 100% 30.10 in 3.0 mi East 6.9 mph - 0.13 in   Overcast
9:15 AM 45.7 °F 44.4 °F 45.7 °F 100% 30.13 in 7.0 mi ENE 3.5 mph - 0.02 in   Overcast
9:35 AM 45.5 °F 44.2 °F 45.5 °F 100% 30.14 in 3.0 mi ENE 3.5 mph - 0.05 in   Overcast
9:55 AM 45.7 °F 42.7 °F 45.7 °F 100% 30.13 in 7.0 mi ENE 5.8 mph - 0.07 in   Overcast
10:15 AM 45.5 °F 41.8 °F 45.5 °F 100% 30.13 in 5.0 mi ENE 6.9 mph - 0.02 in   Overcast
10:35 AM 45.5 °F 41.8 °F 45.5 °F 100% 30.12 in 5.0 mi NNE 6.9 mph - 0.04 in   Overcast
10:55 AM 45.7 °F 41.5 °F 45.7 °F 100% 30.12 in 10.0 mi NE 8.1 mph - 0.04 in   Overcast
11:15 AM 44.4 °F 42.0 °F 44.4 °F 100% 30.13 in 10.0 mi NE 4.6 mph - N/A   Overcast
11:35 AM 44.2 °F 39.7 °F 44.1 °F 99% 30.13 in 4.0 mi NNE 8.1 mph - 0.01 in   Overcast
11:55 AM 44.2 °F 41.8 °F 44.2 °F 100% 30.10 in 3.0 mi NNE 4.6 mph - 0.03 in   Overcast
12:15 PM 43.9 °F 40.5 °F 43.9 °F 100% 30.09 in 7.0 mi North 5.8 mph - N/A   Overcast
12:35 PM 43.9 °F 42.3 °F 43.9 °F 100% 30.10 in 7.0 mi NNW 3.5 mph - 0.01 in   Overcast
12:55 PM 43.2 °F 37.9 °F 43.2 °F 100% 30.08 in 10.0 mi NNE 9.2 mph - 0.01 in   Overcast
1:15 PM 42.1 °F 37.7 °F 41.2 °F 97% 30.07 in 7.0 mi NNE 6.9 mph - N/A   Overcast
1:35 PM 41.0 °F 37.1 °F 39.2 °F 93% 30.08 in 7.0 mi NNE 5.8 mph - N/A   Overcast
1:55 PM 40.5 °F 37.3 °F 39.4 °F 96% 30.10 in 2.5 mi NNE 4.6 mph - 0.03 in   Overcast
2:15 PM 40.1 °F 38.0 °F 40.1 °F 100% 30.10 in 1.8 mi NNE 3.5 mph - 0.05 in   Overcast
2:35 PM 39.9 °F 35.8 °F 39.9 °F 100% 30.10 in 2.0 mi NNE 5.8 mph - 0.07 in   Overcast
2:55 PM 39.7 °F 36.5 °F 39.7 °F 100% 30.10 in 2.5 mi NNE 4.6 mph - 0.08 in   Overcast
3:15 PM 39.7 °F - 39.7 °F 100% 30.09 in 3.0 mi Calm Calm - 0.02 in   Overcast
3:35 PM 39.7 °F 34.9 °F 39.7 °F 100% 30.09 in 4.0 mi North 6.9 mph - 0.04 in   Overcast
3:55 PM 39.6 °F 34.7 °F 39.6 °F 100% 30.09 in 4.0 mi NE 6.9 mph - 0.06 in   Overcast
4:15 PM 39.4 °F 36.1 °F 39.4 °F 100% 30.10 in 4.0 mi NNE 4.6 mph - 0.01 in   Overcast
4:35 PM 39.4 °F - 39.4 °F 100% 30.12 in 4.0 mi Calm Calm - 0.04 in   Overcast
4:55 PM 39.4 °F 36.1 °F 39.4 °F 100% 30.12 in 4.0 mi North 4.6 mph - 0.08 in   Overcast
5:55 PM 37.9 °F 33.5 °F 37.9 °F 100% 30.12 in 4.0 mi North 5.8 mph - 0.05 in   Overcast
6:35 PM 36.5 °F 30.3 °F 36.5 °F 100% 30.11 in 4.0 mi North 8.1 mph - 0.01 in   Overcast
8:55 PM 34.2 °F 30.0 °F 34.2 °F 100% 30.09 in 7.0 mi NNW 4.6 mph - 0.07 in   Overcast
9:15 PM 33.8 °F - 33.8 °F 100% 30.11 in 4.0 mi Calm Calm - 0.03 in   Overcast
9:55 PM 33.3 °F - 33.3 °F 100% 30.08 in 3.0 mi Calm Calm - 0.15 in   Overcast
10:15 PM 33.3 °F 30.2 °F 33.3 °F 100% 30.09 in 4.0 mi WNW 3.5 mph - 0.03 in   Overcast
10:35 PM 33.1 °F 28.7 °F 33.1 °F 100% 30.06 in 1.0 mi NNW 4.6 mph - 0.07 in   Overcast
10:55 PM 33.1 °F 28.7 °F 33.1 °F 100% 30.08 in 2.5 mi WNW 4.6 mph - 0.08 in   Overcast